When you browse on this site, cookies collect data to enhance your experience and personalize the content and advertising you see.
Visit our Privacy Policy to learn more. By continuing to use the site, you agree to this use of cookies and data.

Meteo pe oră la Dzieczewo

Astăzi, 26 Septembrie, Sâmbătă

Timp Temperatura Precipitaţii Vânt Presiune Umiditate
00:00 +17°C° 0.5 mm 3 m/s 737 mmHg 92%
01:00 +17°C° 0 mm 3 m/s 737 mmHg 91%
02:00 +17°C° 0 mm 4 m/s 736 mmHg 89%
03:00 +17°C° 0 mm 4 m/s 736 mmHg 87%
04:00 +17°C° 0 mm 4 m/s 736 mmHg 86%
05:00 +16°C° 0 mm 5 m/s 735 mmHg 84%
06:00 +17°C° 0 mm 5 m/s 735 mmHg 82%
07:00 +17°C° 0 mm 5 m/s 735 mmHg 80%
08:00 +17°C° 0 mm 5 m/s 735 mmHg 78%
09:00 +17°C° 0 mm 6 m/s 735 mmHg 75%
10:00 +19°C° 0 mm 6 m/s 735 mmHg 73%
11:00 +20°C° 0 mm 7 m/s 735 mmHg 69%
12:00 +21°C° 0 mm 8 m/s 735 mmHg 66%
13:00 +23°C° 0 mm 8 m/s 735 mmHg 62%
14:00 +22°C° 0 mm 7 m/s 735 mmHg 65%
15:00 +21°C° 0 mm 7 m/s 736 mmHg 67%
16:00 +21°C° 0 mm 6 m/s 736 mmHg 70%
17:00 +20°C° 0.1 mm 5 m/s 736 mmHg 73%
18:00 +19°C° 0.1 mm 4 m/s 737 mmHg 77%
19:00 +19°C° 0.1 mm 3 m/s 737 mmHg 80%
20:00 +18°C° 1.1 mm 3 m/s 738 mmHg 84%
21:00 +17°C° 1.1 mm 2 m/s 738 mmHg 88%
22:00 +17°C° 1.1 mm 2 m/s 738 mmHg 91%
23:00 +16°C° 1.9 mm 2 m/s 738 mmHg 92%

Mâine, 27 Septembrie, Duminică

Timp Temperatura Precipitaţii Vânt Presiune Umiditate
00:00 +16°C° 1.9 mm 3 m/s 738 mmHg 92%
01:00 +16°C° 1.9 mm 3 m/s 738 mmHg 93%
02:00 +15°C° 0.2 mm 4 m/s 738 mmHg 90%
03:00 +15°C° 0.2 mm 4 m/s 738 mmHg 87%
04:00 +17°C° 0.2 mm 4 m/s 737 mmHg 85%
05:00 +16°C° 1.3 mm 5 m/s 737 mmHg 85%
06:00 +16°C° 1.3 mm 5 m/s 737 mmHg 85%
07:00 +16°C° 1.3 mm 6 m/s 737 mmHg 85%
08:00 +17°C° 0.6 mm 6 m/s 737 mmHg 83%
09:00 +17°C° 0.6 mm 7 m/s 738 mmHg 80%
10:00 +17°C° 0.6 mm 7 m/s 738 mmHg 78%
11:00 +17°C° 0.3 mm 7 m/s 738 mmHg 78%
12:00 +17°C° 0.3 mm 7 m/s 738 mmHg 77%
13:00 +16°C° 0.3 mm 7 m/s 739 mmHg 76%
14:00 +15°C° 1.2 mm 7 m/s 739 mmHg 81%
15:00 +13°C° 1.2 mm 6 m/s 740 mmHg 86%
16:00 +10°C° 1.2 mm 6 m/s 741 mmHg 91%
17:00 +10°C° 0.1 mm 6 m/s 741 mmHg 90%
18:00 +9°C° 0.1 mm 5 m/s 742 mmHg 90%
19:00 +9°C° 0.1 mm 5 m/s 742 mmHg 90%
20:00 +9°C° 0.1 mm 5 m/s 743 mmHg 89%
21:00 +9°C° 0.1 mm 5 m/s 744 mmHg 89%
22:00 +9°C° 0.1 mm 6 m/s 745 mmHg 89%
23:00 +9°C° 0 mm 5 m/s 745 mmHg 87%

Poimâine, 28 Septembrie, Luni

Timp Temperatura Precipitaţii Vânt Presiune Umiditate
00:00 +9°C° 0 mm 5 m/s 745 mmHg 86%
01:00 +10°C° 0 mm 4 m/s 745 mmHg 84%
02:00 +9°C° 0 mm 5 m/s 746 mmHg 85%
03:00 +9°C° 0 mm 5 m/s 746 mmHg 86%
04:00 +9°C° 0 mm 5 m/s 747 mmHg 87%
05:00 +9°C° 0 mm 5 m/s 747 mmHg 86%
06:00 +9°C° 0 mm 5 m/s 747 mmHg 84%
07:00 +9°C° 0 mm 5 m/s 748 mmHg 83%
08:00 +10°C° 0 mm 5 m/s 748 mmHg 76%
09:00 +13°C° 0 mm 5 m/s 748 mmHg 69%
10:00 +14°C° 0 mm 5 m/s 749 mmHg 62%
11:00 +15°C° 0 mm 5 m/s 749 mmHg 58%
12:00 +17°C° 0 mm 4 m/s 749 mmHg 54%
13:00 +18°C° 0 mm 4 m/s 749 mmHg 50%
14:00 +18°C° 0 mm 4 m/s 749 mmHg 52%
15:00 +18°C° 0 mm 3 m/s 749 mmHg 54%
16:00 +17°C° 0 mm 3 m/s 749 mmHg 56%
17:00 +17°C° 0 mm 3 m/s 749 mmHg 57%
18:00 +16°C° 0 mm 3 m/s 749 mmHg 59%
19:00 +14°C° 0 mm 3 m/s 749 mmHg 60%
20:00 +14°C° 0 mm 3 m/s 749 mmHg 62%
21:00 +14°C° 0 mm 3 m/s 749 mmHg 64%
22:00 +14°C° 0 mm 3 m/s 749 mmHg 66%
23:00 +14°C° 0 mm 3 m/s 749 mmHg 67%

29 Septembrie, Marţi

Timp Temperatura Precipitaţii Vânt Presiune Umiditate
00:00 +14°C° 0 mm 3 m/s 749 mmHg 68%
01:00 +13°C° 0 mm 3 m/s 749 mmHg 70%
02:00 +13°C° 0 mm 3 m/s 748 mmHg 71%
03:00 +13°C° 0 mm 3 m/s 748 mmHg 72%
04:00 +13°C° 0 mm 3 m/s 748 mmHg 73%
05:00 +14°C° 0 mm 2 m/s 748 mmHg 74%
06:00 +14°C° 0 mm 2 m/s 748 mmHg 76%
07:00 +14°C° 0 mm 2 m/s 748 mmHg 77%
08:00 +15°C° 0 mm 2 m/s 748 mmHg 74%
09:00 +16°C° 0 mm 2 m/s 749 mmHg 71%
10:00 +17°C° 0 mm 2 m/s 749 mmHg 68%
11:00 +17°C° 0 mm 2 m/s 749 mmHg 67%
12:00 +19°C° 0 mm 1 m/s 749 mmHg 65%
13:00 +19°C° 0 mm 1 m/s 749 mmHg 64%
14:00 +19°C° 0.2 mm 1 m/s 749 mmHg 68%
15:00 +17°C° 0.2 mm 2 m/s 749 mmHg 71%
16:00 +17°C° 0.2 mm 2 m/s 749 mmHg 75%
17:00 +16°C° 1 mm 2 m/s 749 mmHg 81%
18:00 +15°C° 1 mm 1 m/s 749 mmHg 86%
19:00 +15°C° 1 mm 1 m/s 749 mmHg 92%
20:00 +15°C° 0.1 mm 2 m/s 749 mmHg 90%
21:00 +15°C° 0.1 mm 2 m/s 749 mmHg 89%
22:00 +14°C° 0.1 mm 3 m/s 749 mmHg 87%
23:00 +14°C° 0 mm 3 m/s 749 mmHg 87%

30 Septembrie, Miercuri

Timp Temperatura Precipitaţii Vânt Presiune Umiditate
00:00 +13°C° 0 mm 3 m/s 749 mmHg 87%
01:00 +13°C° 0 mm 3 m/s 749 mmHg 87%
02:00 +13°C° 0 mm 3 m/s 749 mmHg 87%
03:00 +14°C° 0 mm 2 m/s 749 mmHg 88%
04:00 +14°C° 0 mm 2 m/s 749 mmHg 88%
05:00 +14°C° 0 mm 2 m/s 749 mmHg 87%
06:00 +14°C° 0 mm 2 m/s 749 mmHg 86%
07:00 +14°C° 0 mm 2 m/s 749 mmHg 86%
08:00 +15°C° 0 mm 2 m/s 749 mmHg 83%
09:00 +14°C° 0 mm 3 m/s 748 mmHg 80%
10:00 +16°C° 0 mm 3 m/s 748 mmHg 77%
11:00 +17°C° 0 mm 3 m/s 748 mmHg 74%
12:00 +17°C° 0 mm 3 m/s 748 mmHg 72%
13:00 +18°C° 0 mm 3 m/s 748 mmHg 70%
14:00 +18°C° 0 mm 3 m/s 747 mmHg 70%
15:00 +18°C° 0 mm 3 m/s 747 mmHg 70%
16:00 +19°C° 0 mm 3 m/s 747 mmHg 71%
17:00 +18°C° 0.1 mm 3 m/s 747 mmHg 74%
18:00 +17°C° 0.1 mm 3 m/s 747 mmHg 77%
19:00 +16°C° 0.1 mm 3 m/s 747 mmHg 80%
20:00 +16°C° 0.1 mm 3 m/s 747 mmHg 84%
21:00 +15°C° 0.1 mm 2 m/s 746 mmHg 88%
22:00 +14°C° 0.1 mm 2 m/s 746 mmHg 91%
23:00 +14°C° 0.1 mm 2 m/s 746 mmHg 91%

1 Octombrie, Joi

Timp Temperatura Precipitaţii Vânt Presiune Umiditate
00:00 +14°C° 0.1 mm 2 m/s 745 mmHg 91%
01:00 +14°C° 0.1 mm 2 m/s 745 mmHg 90%
02:00 +14°C° 0.2 mm 2 m/s 745 mmHg 90%
03:00 +13°C° 0.2 mm 2 m/s 744 mmHg 90%
04:00 +13°C° 0.2 mm 2 m/s 744 mmHg 91%
05:00 +13°C° 0.4 mm 2 m/s 744 mmHg 91%
06:00 +13°C° 0.4 mm 2 m/s 743 mmHg 92%
07:00 +13°C° 0.4 mm 2 m/s 743 mmHg 93%
08:00 +13°C° 0.9 mm 2 m/s 743 mmHg 93%
09:00 +13°C° 0.9 mm 2 m/s 743 mmHg 94%
10:00 +13°C° 0.9 mm 1 m/s 742 mmHg 94%
11:00 +13°C° 1.1 mm 1 m/s 742 mmHg 94%
12:00 +13°C° 1.1 mm 1 m/s 742 mmHg 95%
13:00 +13°C° 1.1 mm 1 m/s 742 mmHg 95%
14:00 +13°C° 1.2 mm 1 m/s 741 mmHg 95%
15:00 +13°C° 1.2 mm 1 m/s 741 mmHg 96%
16:00 +13°C° 1.2 mm 1 m/s 741 mmHg 96%
17:00 +13°C° 1.3 mm 1 m/s 741 mmHg 97%
18:00 +13°C° 1.3 mm 1 m/s 741 mmHg 97%
19:00 +13°C° 1.3 mm 2 m/s 741 mmHg 97%
20:00 +13°C° 1.1 mm 2 m/s 741 mmHg 97%
21:00 +12°C° 1.1 mm 3 m/s 740 mmHg 97%
22:00 +12°C° 1.1 mm 3 m/s 740 mmHg 96%
23:00 +12°C° 0.4 mm 3 m/s 740 mmHg 96%
Arată mai mult